Le Mars, IA

1:48 PM CST on November 13, 2019 (GMT -0600)
Le Mars Municipal

Weather History for KLRJ - September, 2019

Change the Weather History Date:

Friday, September 20, 2019

  Actual Average Record
Temperature  
Mean Temperature 78 °F -  
Max Temperature 86 °F 73 °F 91 °F (1984)
Min Temperature 69 °F 47 °F 27 °F (1991)
Cooling Degree Days 12    
Growing Degree Days 28 (Base 50)    
Moisture  
Dew Point 71 °F    
Average Humidity 82    
Maximum Humidity 100    
Minimum Humidity 55    
Precipitation  
Precipitation 0.00 in - - ()
Sea Level Pressure  
Sea Level Pressure 29.93 in    
Wind  
Wind Speed 10 mph (SSE)    
Max Wind Speed 24 mph    
Max Gust Speed 33 mph    
Visibility 10 miles    
Events      
Averages and records for this station are not official NWS values.
T = Trace of Precipitation, MM = Missing Value Source: NWS Daily Summary

Daily Weather History Graph

Daily Weather History Graph

Search for Another Location

Airport or City:

Astronomy

Sep. 20, 2019 Rise Set
Actual Time 7:09 AM CDT 7:25 PM CDT
Civil Twilight 6:41 AM CDT 7:54 PM CDT
Nautical Twilight 6:08 AM CDT 8:27 PM CDT
Astronomical Twilight 5:34 AM CDT 9:01 PM CDT
Moon 11:08 PM CDT (9/20) 1:23 PM CDT (9/20)
Length of Visible Light 13h 12m
Length of Day
12h 16m
Waning Gibbous, 65% of the Moon is Illuminated
Sep 20
Waning Gibbous
Sep 21
Last Quarter
Sep 28
New
Oct 5
First Quarter
Oct 13
Full

Hourly Weather History & Observations

Time (CDT) Temp. Heat Index Dew Point Humidity Pressure Visibility Wind Dir Wind Speed Gust Speed Precip Events Conditions
12:15 AM 73.4 °F - 71.6 °F 94% 29.96 in 10.0 mi SE 9.2 mph - N/A   Scattered Clouds
12:35 AM 71.6 °F - 71.6 °F 100% 29.96 in 10.0 mi Variable 5.8 mph 12.7 mph N/A   Clear
12:55 AM 71.6 °F - 71.6 °F 100% 29.96 in 10.0 mi SE 8.1 mph - N/A   Mostly Cloudy
1:15 AM 71.6 °F - 71.6 °F 100% 29.97 in 10.0 mi SSE 5.8 mph - N/A   Overcast
1:35 AM 71.6 °F - 71.6 °F 100% 29.97 in 10.0 mi South 4.6 mph - N/A   Mostly Cloudy
1:55 AM 71.6 °F - 71.6 °F 100% 29.98 in 10.0 mi SSE 4.6 mph - N/A   Clear
2:15 AM 71.6 °F - 71.6 °F 100% 29.98 in 10.0 mi SSE 6.9 mph - N/A   Clear
2:35 AM 71.6 °F - 71.6 °F 100% 29.98 in 10.0 mi SE 6.9 mph - N/A   Clear
2:55 AM 71.6 °F - 71.6 °F 100% 29.97 in 10.0 mi SE 8.1 mph - N/A   Clear
3:15 AM 71.6 °F - 71.6 °F 100% 29.97 in 10.0 mi SE 8.1 mph - N/A   Clear
3:35 AM 71.6 °F - 71.6 °F 100% 29.97 in 10.0 mi SSE 6.9 mph - N/A   Clear
3:55 AM 71.6 °F - 71.6 °F 100% 29.97 in 10.0 mi SSE 6.9 mph - N/A   Partly Cloudy
4:15 AM 71.6 °F - 71.6 °F 100% 29.97 in 10.0 mi SSE 5.8 mph - N/A   Mostly Cloudy
4:35 AM 71.6 °F - 71.6 °F 100% 29.97 in 10.0 mi SSE 5.8 mph - N/A   Mostly Cloudy
4:55 AM 71.6 °F - 71.6 °F 100% 29.97 in 10.0 mi SSE 5.8 mph - N/A   Partly Cloudy
5:15 AM 71.6 °F - 71.6 °F 100% 29.96 in 10.0 mi SSE 6.9 mph - N/A   Clear
5:35 AM 69.8 °F - 69.8 °F 100% 29.96 in 10.0 mi SSE 5.8 mph - N/A   Clear
5:55 AM 69.8 °F - 69.8 °F 100% 29.96 in 10.0 mi SE 4.6 mph - N/A   Clear
6:15 AM 71.6 °F - 71.6 °F 100% 29.96 in 10.0 mi SE 8.1 mph - N/A   Clear
6:35 AM 71.6 °F - 71.6 °F 100% 29.96 in 10.0 mi SE 6.9 mph 13.8 mph N/A   Clear
6:55 AM 71.6 °F - 71.6 °F 100% 29.96 in 10.0 mi SE 8.1 mph - N/A   Clear
7:15 AM 71.6 °F - 69.8 °F 94% 29.97 in 9.0 mi SE 8.1 mph - N/A   Clear
7:35 AM 71.6 °F - 71.6 °F 100% 29.97 in 9.0 mi SE 9.2 mph - N/A   Clear
7:55 AM 71.6 °F - 71.6 °F 100% 29.98 in 9.0 mi SE 10.4 mph - N/A   Clear
8:15 AM 71.6 °F - 71.6 °F 100% 29.98 in 10.0 mi SE 10.4 mph - N/A   Clear
8:35 AM 73.4 °F - 71.6 °F 94% 29.99 in 10.0 mi SE 10.4 mph - N/A   Clear
8:55 AM 73.4 °F - 71.6 °F 94% 29.99 in 10.0 mi SE 9.2 mph - N/A   Clear
9:15 AM 73.4 °F - 73.4 °F 100% 29.99 in 10.0 mi SE 8.1 mph - N/A   Clear
9:35 AM 75.2 °F - 73.4 °F 94% 29.99 in 10.0 mi SSE 6.9 mph - N/A   Clear
9:55 AM 77.0 °F - 73.4 °F 89% 29.99 in 10.0 mi SSE 11.5 mph - N/A   Clear
10:15 AM 78.8 °F - 73.4 °F 83% 29.98 in 10.0 mi SE 9.2 mph - N/A   Clear
10:35 AM 78.8 °F - 73.4 °F 83% 29.98 in 10.0 mi SSE 11.5 mph - N/A   Clear
10:55 AM 80.6 °F 85.4 °F 73.4 °F 79% 29.97 in 10.0 mi SSE 12.7 mph - N/A   Clear
11:15 AM 82.4 °F 88.2 °F 73.4 °F 74% 29.97 in 10.0 mi SSE 15.0 mph - N/A   Clear
11:35 AM 82.4 °F 88.2 °F 73.4 °F 74% 29.96 in 10.0 mi SSE 16.1 mph - N/A   Clear
11:55 AM 84.2 °F 90.9 °F 73.4 °F 70% 29.96 in 10.0 mi SSE 15.0 mph - N/A   Clear
12:15 PM 84.2 °F 89.6 °F 71.6 °F 66% 29.95 in 10.0 mi South 13.8 mph 24.2 mph N/A   Clear
12:35 PM 84.2 °F 87.3 °F 68.0 °F 58% 29.94 in 10.0 mi South 21.9 mph 27.6 mph N/A   Clear
12:55 PM 84.2 °F 87.3 °F 68.0 °F 58% 29.94 in 10.0 mi South 19.6 mph 29.9 mph N/A   Clear
1:15 PM 86.0 °F 89.4 °F 68.0 °F 55% 29.92 in 10.0 mi SSE 18.4 mph 27.6 mph N/A   Clear
1:35 PM 86.0 °F 90.4 °F 69.8 °F 58% 29.92 in 10.0 mi SSE 15.0 mph 25.3 mph N/A   Clear
1:55 PM 86.0 °F 89.4 °F 68.0 °F 55% 29.91 in 10.0 mi South 21.9 mph 31.1 mph N/A   Clear
2:15 PM 86.0 °F 89.4 °F 68.0 °F 55% 29.91 in 10.0 mi SSE 24.2 mph - N/A   Partly Cloudy
2:35 PM 84.2 °F 87.3 °F 68.0 °F 58% 29.91 in 10.0 mi South 18.4 mph 28.8 mph N/A   Scattered Clouds
2:55 PM 84.2 °F 88.4 °F 69.8 °F 62% 29.90 in 10.0 mi South 23.0 mph 29.9 mph N/A   Partly Cloudy
3:15 PM 86.0 °F 90.4 °F 69.8 °F 58% 29.88 in 10.0 mi SSE 21.9 mph 33.4 mph N/A   Clear
3:35 PM 86.0 °F 89.4 °F 68.0 °F 55% 29.88 in 10.0 mi South 23.0 mph 31.1 mph N/A   Clear
3:55 PM 86.0 °F 90.4 °F 69.8 °F 58% 29.88 in 10.0 mi South 20.7 mph 27.6 mph N/A   Partly Cloudy
4:15 PM 84.2 °F 88.4 °F 69.8 °F 62% 29.88 in 10.0 mi South 15.0 mph 23.0 mph N/A   Scattered Clouds
4:35 PM 86.0 °F 90.4 °F 69.8 °F 58% 29.87 in 10.0 mi SSE 15.0 mph 24.2 mph N/A   Partly Cloudy
4:55 PM 84.2 °F 88.4 °F 69.8 °F 62% 29.87 in 10.0 mi SSE 21.9 mph 27.6 mph N/A   Partly Cloudy
5:15 PM 84.2 °F 88.4 °F 69.8 °F 62% 29.87 in 10.0 mi SSE 19.6 mph - N/A   Clear
5:35 PM 82.4 °F 86.3 °F 69.8 °F 66% 29.87 in 10.0 mi SSE 16.1 mph 21.9 mph N/A   Clear
5:55 PM 80.6 °F 84.6 °F 71.6 °F 74% 29.86 in 7.0 mi SSE 11.5 mph - N/A   Scattered Clouds
6:15 PM 82.4 °F 86.3 °F 69.8 °F 66% 29.86 in 10.0 mi SSE 18.4 mph 25.3 mph N/A   Clear
6:35 PM 82.4 °F 86.3 °F 69.8 °F 66% 29.85 in 10.0 mi SSE 15.0 mph - N/A   Clear
6:55 PM 80.6 °F 83.9 °F 69.8 °F 70% 29.85 in 10.0 mi SSE 11.5 mph - N/A   Clear
7:15 PM 80.6 °F 83.9 °F 69.8 °F 70% 29.85 in 10.0 mi SE 12.7 mph - N/A   Clear
7:35 PM 78.8 °F - 68.0 °F 69% 29.85 in 10.0 mi SSE 10.4 mph - N/A   Clear
8:15 PM 77.0 °F - 68.0 °F 74% 29.86 in 10.0 mi SE 10.4 mph - N/A   Clear
8:35 PM 77.0 °F - 68.0 °F 74% 29.86 in 10.0 mi SSE 12.7 mph - N/A   Clear
8:55 PM 77.0 °F - 68.0 °F 74% 29.85 in 10.0 mi SSE 17.3 mph 25.3 mph N/A   Clear
9:15 PM 77.0 °F - 68.0 °F 74% 29.85 in 10.0 mi SSE 18.4 mph - N/A   Clear
9:35 PM 75.2 °F - 69.8 °F 83% 29.86 in 10.0 mi South 15.0 mph - N/A   Clear
9:55 PM 75.2 °F - 68.0 °F 78% 29.86 in 10.0 mi SSE 13.8 mph 19.6 mph N/A   Clear
10:35 PM 73.4 °F - 68.0 °F 83% 29.85 in 10.0 mi SSE 15.0 mph 20.7 mph N/A   Clear
10:55 PM 73.4 °F - 68.0 °F 83% 29.86 in 10.0 mi South 10.4 mph 17.3 mph N/A   Partly Cloudy
11:15 PM 73.4 °F - 69.8 °F 88% 29.86 in 10.0 mi South 10.4 mph - N/A   Mostly Cloudy
11:35 PM 73.4 °F - 69.8 °F 88% 29.86 in 10.0 mi South 12.7 mph - N/A   Overcast
11:55 PM 73.4 °F - 69.8 °F 88% 29.86 in 10.0 mi South 11.5 mph - N/A   Overcast